Hourly Weather Bolshie Karmaly

Today, 26 July, Monday

Time Temperature Precipitation Wind Pressure Humidity
00:00 +16°C° 0 mm 1 mps 754 mmHg 53%
01:00 +16°C° 0 mm 1 mps 754 mmHg 54%
02:00 +16°C° 0 mm 2 mps 755 mmHg 55%
03:00 +16°C° 0 mm 2 mps 755 mmHg 56%
04:00 +16°C° 0 mm 2 mps 755 mmHg 59%
05:00 +16°C° 0 mm 2 mps 755 mmHg 61%
06:00 +16°C° 0 mm 2 mps 755 mmHg 64%
07:00 +18°C° 0 mm 3 mps 755 mmHg 59%
08:00 +19°C° 0 mm 3 mps 755 mmHg 53%
09:00 +21°C° 0 mm 3 mps 755 mmHg 48%
10:00 +21°C° 0 mm 3 mps 755 mmHg 46%
11:00 +22°C° 0 mm 4 mps 755 mmHg 44%
12:00 +22°C° 0 mm 4 mps 755 mmHg 42%
13:00 +22°C° 0 mm 4 mps 755 mmHg 44%
14:00 +22°C° 0 mm 3 mps 754 mmHg 47%
15:00 +22°C° 0 mm 3 mps 754 mmHg 50%
16:00 +21°C° 0 mm 3 mps 754 mmHg 51%
17:00 +21°C° 0 mm 3 mps 754 mmHg 52%
18:00 +21°C° 0 mm 3 mps 754 mmHg 53%
19:00 +20°C° 0 mm 3 mps 754 mmHg 55%
20:00 +19°C° 0 mm 3 mps 754 mmHg 57%
21:00 +18°C° 0 mm 3 mps 754 mmHg 59%
22:00 +18°C° 0 mm 3 mps 753 mmHg 58%
23:00 +18°C° 0 mm 3 mps 753 mmHg 57%

Tomorrow, 27 July, Tuesday

Time Temperature Precipitation Wind Pressure Humidity
00:00 +18°C° 0 mm 3 mps 753 mmHg 57%
01:00 +17°C° 0 mm 3 mps 753 mmHg 59%
02:00 +17°C° 0 mm 4 mps 753 mmHg 61%
03:00 +15°C° 0 mm 4 mps 753 mmHg 63%
04:00 +17°C° 0 mm 4 mps 753 mmHg 63%
05:00 +17°C° 0 mm 4 mps 753 mmHg 63%
06:00 +18°C° 0 mm 4 mps 753 mmHg 63%
07:00 +19°C° 0 mm 4 mps 752 mmHg 60%
08:00 +20°C° 0 mm 5 mps 752 mmHg 58%
09:00 +22°C° 0 mm 5 mps 752 mmHg 55%
10:00 +22°C° 0 mm 5 mps 752 mmHg 56%
11:00 +22°C° 0 mm 4 mps 752 mmHg 56%
12:00 +22°C° 0 mm 4 mps 752 mmHg 56%
13:00 +22°C° 0.1 mm 5 mps 751 mmHg 56%
14:00 +22°C° 0.1 mm 5 mps 751 mmHg 57%
15:00 +23°C° 0.1 mm 6 mps 751 mmHg 57%
16:00 +22°C° 0 mm 5 mps 751 mmHg 58%
17:00 +22°C° 0 mm 4 mps 751 mmHg 59%
18:00 +21°C° 0 mm 3 mps 751 mmHg 59%
19:00 +21°C° 0 mm 3 mps 751 mmHg 59%
20:00 +20°C° 0 mm 3 mps 751 mmHg 59%
21:00 +19°C° 0 mm 3 mps 751 mmHg 58%
22:00 +18°C° 0 mm 3 mps 751 mmHg 61%
23:00 +16°C° 0 mm 3 mps 751 mmHg 64%

Day after tomorrow, 28 July, Wednesday

Time Temperature Precipitation Wind Pressure Humidity
00:00 +14°C° 0 mm 3 mps 751 mmHg 66%
01:00 +14°C° 0 mm 3 mps 751 mmHg 69%
02:00 +13°C° 0 mm 3 mps 752 mmHg 72%
03:00 +12°C° 0 mm 3 mps 752 mmHg 75%
04:00 +14°C° 0 mm 2 mps 752 mmHg 73%
05:00 +14°C° 0 mm 2 mps 752 mmHg 71%
06:00 +15°C° 0 mm 2 mps 752 mmHg 69%
07:00 +17°C° 0 mm 2 mps 752 mmHg 62%
08:00 +18°C° 0 mm 2 mps 752 mmHg 55%
09:00 +20°C° 0 mm 2 mps 752 mmHg 47%
10:00 +21°C° 0 mm 2 mps 752 mmHg 45%
11:00 +23°C° 0 mm 2 mps 752 mmHg 42%
12:00 +24°C° 0 mm 2 mps 751 mmHg 40%
13:00 +24°C° 0 mm 2 mps 751 mmHg 42%
14:00 +24°C° 0 mm 2 mps 751 mmHg 45%
15:00 +24°C° 0 mm 2 mps 751 mmHg 48%
16:00 +24°C° 0 mm 2 mps 750 mmHg 51%
17:00 +24°C° 0 mm 2 mps 750 mmHg 53%
18:00 +24°C° 0 mm 2 mps 750 mmHg 56%
19:00 +21°C° 0.1 mm 3 mps 749 mmHg 65%
20:00 +19°C° 0.1 mm 3 mps 749 mmHg 74%
21:00 +17°C° 0.1 mm 4 mps 749 mmHg 83%
22:00 +17°C° 0.1 mm 4 mps 749 mmHg 85%
23:00 +17°C° 0.1 mm 3 mps 748 mmHg 86%

29 July, Thursday

Time Temperature Precipitation Wind Pressure Humidity
00:00 +16°C° 0.1 mm 3 mps 748 mmHg 87%
01:00 +16°C° 0.1 mm 3 mps 748 mmHg 88%
02:00 +16°C° 0.1 mm 3 mps 747 mmHg 89%
03:00 +16°C° 0.1 mm 3 mps 747 mmHg 90%
04:00 +17°C° 0.2 mm 3 mps 747 mmHg 89%
05:00 +18°C° 0.2 mm 4 mps 746 mmHg 87%
06:00 +18°C° 0.2 mm 4 mps 746 mmHg 85%
07:00 +18°C° 0.6 mm 4 mps 746 mmHg 87%
08:00 +18°C° 0.6 mm 3 mps 746 mmHg 88%
09:00 +18°C° 0.6 mm 3 mps 746 mmHg 89%
10:00 +18°C° 1.6 mm 4 mps 745 mmHg 91%
11:00 +17°C° 1.6 mm 5 mps 744 mmHg 92%
12:00 +17°C° 1.6 mm 7 mps 744 mmHg 94%
13:00 +17°C° 0.9 mm 7 mps 743 mmHg 93%
14:00 +17°C° 0.9 mm 7 mps 743 mmHg 93%
15:00 +17°C° 0.9 mm 7 mps 743 mmHg 93%
16:00 +19°C° 0.2 mm 6 mps 742 mmHg 91%
17:00 +20°C° 0.2 mm 5 mps 742 mmHg 90%
18:00 +21°C° 0.2 mm 4 mps 742 mmHg 88%
19:00 +20°C° 0.3 mm 4 mps 742 mmHg 90%
20:00 +20°C° 0.3 mm 4 mps 741 mmHg 92%
21:00 +19°C° 0.3 mm 3 mps 741 mmHg 94%
22:00 +19°C° 0 mm 4 mps 741 mmHg 93%
23:00 +19°C° 0 mm 5 mps 741 mmHg 92%

30 July, Friday

Time Temperature Precipitation Wind Pressure Humidity
00:00 +19°C° 0 mm 5 mps 741 mmHg 91%
01:00 +17°C° 0 mm 5 mps 741 mmHg 93%
02:00 +17°C° 0 mm 5 mps 741 mmHg 94%
03:00 +17°C° 0 mm 5 mps 742 mmHg 96%
04:00 +17°C° 0 mm 5 mps 742 mmHg 95%
05:00 +17°C° 0 mm 5 mps 742 mmHg 95%
06:00 +17°C° 0 mm 5 mps 742 mmHg 95%
07:00 +19°C° 0 mm 4 mps 743 mmHg 90%
08:00 +20°C° 0 mm 4 mps 743 mmHg 85%
09:00 +21°C° 0 mm 4 mps 744 mmHg 80%
10:00 +23°C° 0 mm 4 mps 744 mmHg 73%
11:00 +25°C° 0 mm 4 mps 744 mmHg 66%
12:00 +26°C° 0 mm 4 mps 744 mmHg 59%
13:00 +27°C° 0 mm 4 mps 744 mmHg 57%
14:00 +28°C° 0 mm 5 mps 744 mmHg 56%
15:00 +28°C° 0 mm 5 mps 744 mmHg 54%
16:00 +28°C° 0 mm 4 mps 744 mmHg 57%
17:00 +27°C° 0 mm 4 mps 743 mmHg 59%
18:00 +27°C° 0 mm 3 mps 743 mmHg 62%
19:00 +25°C° 0.4 mm 3 mps 744 mmHg 69%
20:00 +22°C° 0.4 mm 3 mps 744 mmHg 77%
21:00 +20°C° 0.4 mm 2 mps 744 mmHg 84%
22:00 +20°C° 0.3 mm 2 mps 744 mmHg 86%
23:00 +20°C° 0.3 mm 2 mps 744 mmHg 87%

31 July, Saturday

Time Temperature Precipitation Wind Pressure Humidity
00:00 +19°C° 0.3 mm 2 mps 744 mmHg 88%
01:00 +19°C° 0 mm 2 mps 744 mmHg 89%
02:00 +19°C° 0 mm 2 mps 744 mmHg 90%
03:00 +20°C° 0 mm 1 mps 745 mmHg 91%
04:00 +20°C° 0 mm 1 mps 745 mmHg 88%
05:00 +21°C° 0 mm 1 mps 745 mmHg 86%
06:00 +22°C° 0 mm 1 mps 745 mmHg 84%
07:00 +23°C° 0 mm 1 mps 746 mmHg 78%
08:00 +22°C° 0 mm 0 mps 746 mmHg 71%
09:00 +24°C° 0 mm 0 mps 746 mmHg 65%
10:00 +27°C° 0 mm 1 mps 746 mmHg 61%
11:00 +27°C° 0 mm 1 mps 746 mmHg 57%
12:00 +28°C° 0 mm 1 mps 746 mmHg 53%
13:00 +28°C° 0 mm 1 mps 746 mmHg 52%
14:00 +29°C° 0 mm 2 mps 746 mmHg 50%
15:00 +29°C° 0 mm 2 mps 746 mmHg 49%
16:00 +28°C° 0 mm 2 mps 745 mmHg 54%
17:00 +27°C° 0 mm 1 mps 745 mmHg 60%
18:00 +26°C° 0 mm 1 mps 745 mmHg 65%
19:00 +26°C° 0 mm 1 mps 745 mmHg 65%
20:00 +25°C° 0 mm 2 mps 746 mmHg 66%
21:00 +25°C° 0 mm 2 mps 746 mmHg 67%
22:00 +24°C° 0 mm 2 mps 746 mmHg 69%
23:00 +23°C° 0 mm 2 mps 746 mmHg 71%
Show more

We Need Your Consent

Meteoprog and our Service Providers may store and access personal data such as cookies, device identifiers or other similar technologies on your device and process such data to personalise content and ads, as well as provide social media features and to analyse the traffic.

  • Store and/or access information on your device

    Cookies, device identifiers or other information can be stored or accessed on your device for the purposes indicated above.

  • Personalised ads and content, ad and content measurement, audience insights, and products development

    Ads and content can be personalised based on a profile. More data can be added to better personalise ads and content. Ad and content performance can be measured. Insights about the audience who saw the ads and content can be derived. Such data can be used to develop or improve user’s experience, systems and software.

By clicking ‘I Agree’ you will allow the use of indicated cookies, device identifiers, web beacons or other similar technologies. Your settings can be changed in the browser on your device.

For certain purposes, legitimate interests may be relied on, rather than consent. You can read more about this in our Privacy and Cookie Policy.